Date,TemperatureHighF,TemperatureAvgF,TemperatureLowF,DewpointHighF,DewpointAvgF,DewpointLowF,HumidityHigh,HumidityAvg,HumidityLow,PressureMaxIn,PressureMinIn,WindSpeedMaxMPH,WindSpeedAvgMPH,GustSpeedMaxMPH,PrecipitationSumIn
2013-1-1,26.0,18.3,10.0,18.0,10.0,6.0,83,71,47,30.27,30.13,4,2,10,0.00
2013-1-2,30.0,18.4,9.0,18.0,11.4,5.0,85,75,50,30.25,30.13,8,3,17,0.00
2013-1-3,33.0,26.6,18.0,27.0,20.5,14.0,90,78,58,30.32,30.14,9,4,17,0.00
2013-1-4,36.0,23.4,12.0,24.0,17.6,9.0,88,79,60,30.31,30.22,8,2,17,0.00
2013-1-5,35.0,29.3,21.0,33.0,26.0,17.0,95,88,72,30.27,29.97,8,4,16,0.01
2013-1-6,35.0,25.6,17.0,33.0,21.8,15.0,93,86,73,30.36,29.96,9,4,19,0.01
2013-1-7,40.0,27.5,16.0,29.0,22.3,14.0,92,82,63,30.36,30.12,9,4,19,0.00
2013-1-8,46.0,34.3,26.0,34.0,28.4,23.0,91,80,56,30.16,30.04,8,4,17,0.00
2013-1-9,50.0,37.9,28.0,35.0,29.3,23.0,92,73,43,30.49,30.03,12,3,21,0.00
2013-1-10,29.0,26.4,24.0,24.0,22.4,20.0,89,85,80,30.49,30.46,1,0,2,0.00
2013-1-14,26.0,20.3,14.0,18.0,15.1,10.0,88,80,66,30.48,30.44,3,1,8,0.00
2013-1-15,31.0,21.3,13.0,22.0,16.6,10.0,92,82,62,30.46,30.14,1,0,7,0.00
2013-1-16,36.0,26.9,16.0,30.0,22.0,13.0,91,82,68,30.14,29.88,7,2,18,0.01
2013-1-17,34.0,28.3,20.0,31.0,22.0,16.0,93,78,59,30.43,30.07,6,1,14,0.01
2013-1-18,42.0,31.7,20.0,33.0,25.6,16.0,89,79,67,30.45,29.96,11,5,23,0.00
2013-1-19,50.0,40.1,30.0,39.0,32.9,16.0,84,75,56,30.01,29.76,16,5,34,0.00
2013-1-20,29.0,18.4,14.0,18.0,9.3,6.0,77,67,58,30.33,29.99,14,6,28,0.00
2013-1-21,15.0,10.0,4.0,10.0,0.4,-6.0,82,65,46,30.35,30.20,12,7,21,0.00
2013-1-22,13.0,7.7,1.0,2.0,-1.5,-5.0,81,66,53,30.46,30.34,7,4,16,0.00
2013-1-23,25.0,17.1,12.0,13.0,7.3,2.0,85,65,57,30.40,30.14,8,2,19,0.00
2013-1-24,24.0,15.6,6.0,10.0,3.8,-2.0,73,60,42,30.65,30.36,5,2,12,0.00
2013-1-25,34.0,23.9,18.0,24.0,15.9,7.0,90,72,54,30.38,29.99,7,2,13,0.02
2013-1-26,31.0,20.8,10.0,18.0,12.5,6.0,84,71,49,30.42,30.21,3,0,8,0.01
2013-1-27,39.0,29.8,24.0,38.0,25.4,17.0,98,84,70,30.39,29.90,7,2,14,0.08
2013-1-28,53.0,45.4,39.0,53.0,44.4,38.0,99,98,96,29.93,29.76,9,2,17,0.11
2013-1-29,63.0,56.8,51.0,60.0,55.7,50.0,99,96,91,29.76,29.36,9,5,22,1.11
2013-1-30,51.0,35.3,21.0,50.0,34.0,17.0,99,95,85,29.68,29.23,12,5,22,0.95
2013-1-31,21.0,11.8,4.0,17.0,6.1,-2.0,85,77,72,30.26,29.68,11,8,23,0.00
2013-2-1,19.0,9.5,1.0,14.0,3.0,-4.0,81,75,66,30.44,30.21,9,4,17,0.00
2013-2-2,26.0,18.8,10.0,23.0,15.3,6.0,92,86,77,30.21,30.03,7,2,14,0.00
2013-2-3,26.0,20.3,12.0,21.0,16.0,8.0,95,83,68,30.10,29.98,9,2,17,0.00
2013-2-4,35.0,26.1,18.0,28.0,22.1,14.0,90,84,71,30.04,29.83,5,1,9,0.02
2013-2-5,34.0,26.2,15.0,31.0,23.1,11.0,92,88,83,30.11,29.83,8,2,17,0.01
2013-2-6,42.0,33.3,22.0,34.0,28.2,19.0,91,82,67,30.22,30.09,5,2,11,0.00
2013-2-7,35.0,33.7,32.0,34.0,32.2,30.0,98,95,89,30.09,29.85,5,1,12,0.73
2013-2-8,31.0,27.0,24.0,30.0,24.3,22.0,96,90,85,30.40,29.98,5,2,12,0.01
2013-2-9,35.0,30.3,26.0,31.0,26.7,23.0,93,87,79,30.40,30.06,7,2,13,0.00
2013-2-10,47.0,40.0,32.0,46.0,38.0,29.0,96,93,75,30.07,29.49,13,6,23,0.31
2013-2-11,44.0,33.6,30.0,36.0,27.0,24.0,82,76,72,30.08,29.54,11,7,24,0.01
2013-2-12,33.0,29.0,26.0,26.0,24.4,22.0,92,83,70,30.13,29.93,8,3,14,0.00
2013-2-13,45.0,34.0,26.0,36.0,29.6,24.0,93,85,65,29.93,29.74,4,2,11,0.00
2013-2-14,41.0,36.2,33.0,33.0,31.3,29.0,91,82,70,29.99,29.67,9,4,18,0.00
2013-2-15,33.0,28.9,23.0,31.0,21.0,14.0,91,73,48,30.21,29.98,7,4,14,0.00
2013-2-16,25.0,19.2,14.0,15.0,10.6,7.0,78,69,56,30.23,30.14,7,3,15,0.00
2013-2-17,34.0,22.9,10.0,24.0,14.1,5.0,82,69,51,30.24,29.97,4,1,11,0.00
2013-2-18,54.0,39.5,26.0,46.0,34.0,23.0,95,81,67,29.97,29.44,13,8,27,0.26
2013-2-19,26.0,16.9,12.0,23.0,11.1,5.0,87,78,72,30.26,29.66,12,9,26,0.27
2013-2-20,24.0,15.3,7.0,17.0,9.5,2.0,89,77,68,30.41,30.26,7,3,15,0.00
2013-2-21,31.0,23.4,14.0,26.0,19.7,11.0,94,86,78,30.40,29.95,2,0,8,0.00
2013-2-22,34.0,28.8,25.0,33.0,26.5,23.0,97,91,81,29.96,29.80,7,2,15,0.12
2013-2-23,30.0,24.7,19.0,23.0,20.0,16.0,89,82,73,30.00,29.95,4,2,10,0.03
2013-2-24,39.0,26.6,14.0,28.0,21.2,12.0,93,81,59,30.15,30.00,1,0,5,0.16
2013-2-25,45.0,33.2,22.0,34.0,28.3,21.0,95,83,62,30.16,29.90,1,0,6,0.01
2013-2-26,35.0,33.0,32.0,32.0,30.3,28.0,98,90,75,29.91,29.48,5,2,11,0.12
2013-2-27,33.0,31.7,30.0,32.0,30.6,29.0,98,96,91,29.75,29.54,6,3,11,0.30
2013-2-28,37.0,33.1,30.0,33.0,30.3,26.0,95,89,82,30.07,29.75,4,3,11,0.38
2013-3-1,30.0,27.0,25.0,26.0,23.3,21.0,90,86,81,30.22,30.06,8,4,15,0.01
2013-3-2,30.0,24.1,16.0,23.0,18.9,11.0,87,80,66,30.22,30.18,4,2,11,0.02
2013-3-3,37.0,22.4,13.0,20.0,14.7,10.0,90,74,40,30.19,30.10,3,0,7,0.01
2013-3-4,35.0,29.3,23.0,29.0,24.4,17.0,88,82,73,30.12,29.94,2,0,9,0.01
2013-3-5,36.0,31.7,27.0,34.0,30.2,26.0,97,94,88,30.02,29.79,7,2,13,0.42
2013-3-6,32.0,28.1,26.0,28.0,25.5,23.0,96,90,85,30.33,30.01,6,3,12,0.16
2013-3-7,39.0,29.5,22.0,28.0,24.9,19.0,91,83,64,30.42,30.33,3,1,5,0.04
2013-3-8,41.0,29.8,20.0,33.0,25.6,18.0,93,85,71,30.48,30.29,3,0,8,0.01
2013-3-9,40.0,36.3,31.0,37.0,33.2,28.0,92,88,83,30.29,29.81,6,2,10,0.07
2013-3-10,47.0,42.4,37.0,46.0,41.1,35.0,99,96,90,29.86,29.55,9,2,16,0.89
2013-3-11,45.0,37.0,32.0,45.0,35.5,28.0,99,95,87,29.85,29.57,8,3,16,0.06
2013-3-12,40.0,31.4,27.0,32.0,26.9,21.0,94,83,72,30.07,29.85,11,5,19,0.02
2013-3-13,34.0,28.6,24.0,23.0,21.0,18.0,87,74,54,30.35,30.07,10,5,17,0.01
2013-3-14,36.0,30.1,24.0,33.0,26.4,20.0,94,86,69,30.36,30.07,6,1,10,0.01
2013-3-15,47.0,37.4,30.0,41.0,34.5,28.0,96,90,76,30.07,29.69,6,1,10,0.01
2013-3-16,37.0,33.4,30.0,34.0,30.9,25.0,98,91,79,30.12,29.67,6,2,10,0.00
2013-3-17,39.0,32.8,28.0,29.0,26.2,22.0,88,77,63,30.19,29.96,4,1,10,0.00
2013-3-18,36.0,31.2,24.0,35.0,28.3,17.0,96,89,73,29.95,29.65,13,3,27,0.06
2013-3-19,37.0,27.0,19.0,22.0,16.7,11.0,78,65,45,30.14,29.87,11,7,23,0.01
2013-3-20,27.0,22.0,14.0,20.0,12.1,6.0,82,66,55,30.16,30.07,12,8,24,0.00
2013-3-21,35.0,23.5,14.0,20.0,13.9,9.0,83,68,47,30.11,30.03,5,2,10,0.00
2013-3-22,43.0,29.7,19.0,26.0,20.5,17.0,93,71,40,30.09,30.01,5,1,12,0.00
2013-3-23,48.0,35.6,25.0,29.0,25.6,22.0,92,69,43,30.12,29.98,3,0,8,0.00
2013-3-24,35.0,32.0,30.0,31.0,28.4,26.0,97,86,75,30.01,29.65,8,2,16,0.02
2013-3-25,37.0,31.5,27.0,32.0,27.8,24.0,97,87,79,30.11,29.71,7,3,16,0.15
2013-3-26,39.0,34.3,32.0,29.0,27.8,25.0,86,77,58,30.28,30.11,4,2,10,0.01
2013-3-27,45.0,36.6,31.0,30.0,26.8,23.0,85,69,46,30.35,30.27,5,2,10,0.00
2013-3-28,54.0,38.0,26.0,34.0,27.4,23.0,91,69,39,30.37,30.27,4,1,11,0.00
2013-4-18,47.0,43.5,39.0,44.0,39.3,34.0,88,85,82,29.59,29.54,9,6,19,2.94
2013-4-19,39.0,37.2,35.0,34.0,31.4,29.0,87,79,74,29.97,29.54,12,7,22,0.01
2013-4-20,48.0,38.6,31.0,31.0,29.0,26.0,91,70,43,30.39,29.97,7,2,16,0.00
2013-4-21,57.0,43.6,33.0,39.0,33.4,28.0,86,69,49,30.50,30.30,6,2,16,0.00
2013-4-22,68.0,52.2,36.0,46.0,39.4,33.0,90,65,36,30.30,30.00,7,2,14,0.00
2013-4-23,55.0,47.2,37.0,51.0,44.7,36.0,96,91,73,30.01,29.88,6,2,13,0.68
2013-4-24,51.0,42.2,36.0,38.0,34.1,30.0,96,75,50,30.14,29.94,7,2,13,0.30
2013-4-25,54.0,44.7,39.0,37.0,30.4,21.0,86,60,31,30.31,30.08,11,4,20,0.00
2013-4-26,67.0,52.2,38.0,49.0,41.2,31.0,85,68,51,30.32,30.23,10,4,19,0.00
2013-4-27,69.0,55.6,43.0,51.0,46.0,41.0,93,73,40,30.28,29.97,5,1,13,0.02
2013-4-28,65.0,56.5,52.0,58.0,53.2,50.0,98,90,70,29.97,29.80,2,0,8,0.06
2013-4-29,75.0,61.3,47.0,60.0,54.0,46.0,97,79,53,29.90,29.72,8,4,16,0.01
2013-4-30,86.0,71.0,59.0,63.0,58.1,55.0,91,67,39,29.89,29.74,9,5,21,0.01
2013-5-1,85.0,72.4,59.0,61.0,55.9,51.0,89,60,31,30.07,29.89,6,3,14,0.00
2013-5-2,68.0,59.4,47.0,56.0,50.8,44.0,95,74,58,30.16,30.05,6,2,10,0.36
2013-5-3,59.0,49.5,42.0,57.0,47.7,40.0,96,93,90,30.08,29.86,4,1,8,0.51
2013-5-4,72.0,59.3,51.0,58.0,53.9,49.0,97,84,55,30.01,29.88,6,1,11,0.03
2013-5-5,77.0,61.7,50.0,55.0,50.0,41.0,98,70,28,30.00,29.90,3,0,8,0.01
2013-5-6,78.0,64.2,54.0,51.0,44.5,33.0,84,54,21,29.99,29.91,7,1,14,0.00
2013-5-7,83.0,65.7,49.0,50.0,44.5,38.0,80,50,26,30.02,29.92,3,0,9,0.00
2013-5-8,83.0,67.6,51.0,53.0,47.7,40.0,83,53,25,30.01,29.91,4,1,9,0.00
2013-5-9,74.0,64.3,60.0,62.0,56.7,48.0,96,77,52,29.93,29.76,6,1,16,0.31
2013-5-10,61.0,52.5,48.0,60.0,49.0,-99.9,97,93,88,29.96,29.75,8,1,13,0.17
2013-5-11,62.0,52.5,43.0,52.0,39.5,-99.9,93,67,29,30.06,29.85,13,4,25,0.00
2013-5-12,58.0,47.7,38.0,32.0,28.7,24.0,73,50,28,30.14,30.06,10,4,19,0.00
2013-5-13,70.0,54.6,38.0,41.0,32.0,24.0,78,47,21,30.18,29.98,6,1,15,0.00
2013-5-14,93.0,72.9,54.0,61.0,51.3,40.0,68,49,25,29.98,29.63,7,3,15,0.00
2013-5-15,85.0,75.8,65.0,62.0,54.5,48.0,82,49,31,29.78,29.63,8,3,19,0.04
2013-5-16,89.0,67.4,57.0,63.0,30.6,-99.9,88,48,21,29.91,29.78,5,1,10,0.19
2013-5-17,81.0,68.0,60.0,66.0,57.1,-99.9,92,80,54,29.97,29.89,4,0,10,0.21
2013-5-18,83.0,70.8,59.0,66.0,62.4,58.0,97,77,51,30.01,29.88,3,0,10,0.02
2013-5-19,92.0,76.5,61.0,70.0,64.5,59.0,94,70,40,29.90,29.67,5,2,13,0.00
2013-5-20,88.0,78.9,68.0,71.0,61.3,54.0,80,58,32,29.78,29.64,8,4,25,0.04
2013-5-22,62.0,61.4,61.0,57.0,56.1,56.0,85,84,82,29.74,29.71,4,3,10,0.17
2013-5-23,61.0,56.1,45.0,57.0,51.8,40.0,95,86,72,30.26,29.73,10,4,16,0.03
2013-5-24,69.0,52.7,38.0,45.0,40.2,36.0,93,66,35,30.43,30.26,5,1,10,0.01
2013-5-25,59.0,51.9,48.0,51.0,42.1,36.0,89,70,50,30.38,30.22,2,0,5,0.06
2013-5-26,62.0,53.7,46.0,55.0,49.2,42.0,97,85,71,30.27,30.07,4,0,10,1.02
2013-5-27,70.0,62.9,56.0,65.0,60.5,55.0,98,92,79,30.08,29.79,2,0,9,1.11
2013-5-28,76.0,68.8,63.0,70.0,65.6,61.0,96,90,79,29.83,29.66,12,3,24,1.25
2013-5-29,85.0,73.9,62.0,72.0,66.8,61.0,96,80,61,29.90,29.73,6,3,14,1.33
2013-5-30,84.0,73.9,63.0,72.0,67.2,60.0,97,80,66,29.87,29.72,10,5,25,0.55
2013-5-31,75.0,69.2,63.0,71.0,65.5,62.0,97,88,75,29.82,29.65,6,2,17,0.76
2013-6-1,73.0,67.3,63.0,68.0,62.6,-99.9,95,88,80,29.73,29.63,8,3,19,0.46
2013-6-2,63.0,59.6,53.0,60.0,55.0,50.0,94,85,75,30.03,29.73,6,2,15,0.02
2013-6-3,72.0,58.8,46.0,53.0,49.0,45.0,98,73,44,30.11,30.01,2,0,7,0.00
2013-6-4,76.0,63.8,50.0,53.0,50.1,46.0,87,64,40,30.12,30.02,2,0,9,0.00
2013-6-5,80.0,66.7,55.0,58.0,53.9,49.0,86,65,43,30.06,29.85,5,1,12,0.00
2013-6-6,76.0,62.5,56.0,61.0,54.5,49.0,93,75,58,29.89,29.82,6,3,11,0.10
2013-6-7,75.0,63.1,52.0,58.0,51.8,48.0,90,68,42,29.91,29.85,5,2,11,0.04
2013-6-8,80.0,65.9,50.0,54.0,49.0,43.0,93,58,34,29.95,29.89,3,0,7,0.00
2013-6-9,83.0,70.2,59.0,65.0,57.2,49.0,93,66,38,29.95,29.75,7,2,16,0.05
2013-6-10,81.0,70.5,62.0,65.0,62.6,60.0,96,78,55,29.84,29.71,7,2,15,0.06
2013-6-11,90.0,76.0,61.0,70.0,63.7,59.0,92,68,40,29.90,29.75,3,1,10,0.00
2013-6-12,96.0,80.1,71.0,74.0,70.3,65.0,95,75,38,29.84,29.49,10,2,23,0.16
2013-6-13,83.0,72.4,64.0,67.0,61.1,55.0,97,71,41,29.98,29.59,7,2,14,0.26
2013-6-14,83.0,68.7,55.0,61.0,56.5,52.0,91,67,42,30.10,29.95,3,0,8,0.10
2013-6-15,83.0,72.1,64.0,70.0,63.6,57.0,88,75,57,30.00,29.83,7,1,18,0.04
2013-6-16,83.0,71.6,65.0,69.0,65.2,63.0,92,81,61,29.91,29.83,5,2,14,0.01
2013-6-17,89.0,83.2,72.0,67.0,58.2,52.0,82,45,29,29.91,29.82,7,1,11,0.00
2013-6-18,78.0,69.0,60.0,64.0,57.8,50.0,84,68,52,30.02,29.83,7,4,16,0.00
2013-6-19,86.0,70.1,54.0,61.0,55.6,48.0,87,63,40,30.09,30.00,3,1,8,0.00
2013-6-20,92.0,75.0,63.0,67.0,58.9,53.0,79,60,32,30.09,30.02,3,1,8,0.00
2013-6-22,83.0,75.8,69.0,75.0,70.9,66.0,90,85,77,30.03,29.91,7,2,16,0.03
2013-6-23,87.0,74.6,66.0,75.0,69.1,64.0,95,84,63,29.99,29.88,6,2,14,0.04
2013-6-24,87.0,72.1,66.0,75.0,68.3,65.0,97,88,65,30.06,29.85,13,2,28,0.64
2013-6-25,86.0,76.4,68.0,77.0,71.3,66.0,96,85,71,29.91,29.75,4,2,13,0.02
2013-6-26,84.0,74.8,67.0,75.0,69.9,66.0,97,85,68,29.80,29.67,5,2,15,0.61
2013-6-27,88.0,78.5,70.0,75.0,70.0,62.0,98,77,53,29.76,29.67,8,3,19,0.06
2013-6-28,83.0,73.9,65.0,66.0,62.9,60.0,85,70,49,29.71,29.59,8,4,15,0.01
2013-6-29,68.0,64.8,60.0,67.0,63.0,58.0,98,94,86,29.73,29.56,5,1,9,1.68
2013-6-30,79.0,67.6,60.0,65.0,58.7,48.0,94,75,48,29.95,29.73,8,3,15,0.01
2013-7-1,77.0,66.7,56.0,56.0,52.8,50.0,89,64,39,30.02,29.93,10,5,18,0.00
2013-7-2,73.0,63.7,57.0,60.0,55.6,53.0,89,76,56,30.04,29.99,7,3,13,0.00
2013-7-3,76.0,64.0,58.0,64.0,60.0,55.0,96,87,66,30.05,29.99,2,0,6,0.02
2013-7-4,85.0,71.3,59.0,66.0,62.1,57.0,95,75,48,30.07,29.98,4,1,9,0.02
2013-7-5,87.0,74.1,61.0,69.0,63.1,59.0,95,71,40,30.05,29.97,3,1,7,0.00
2013-7-6,86.0,73.1,65.0,69.0,65.8,62.0,95,79,50,30.02,29.93,3,0,7,0.00
2013-7-7,90.0,78.8,68.0,73.0,69.1,64.0,91,74,52,29.97,29.90,4,2,12,0.00
2013-7-8,87.0,77.2,69.0,76.0,70.5,-99.9,95,83,66,30.00,29.91,6,2,13,0.37
2013-7-9,87.0,79.3,73.0,79.0,75.1,71.0,95,88,75,29.97,29.82,8,1,16,0.10
2013-7-10,86.0,77.7,68.0,76.0,67.6,-99.9,95,75,56,29.96,29.79,6,1,13,0.01
2013-7-11,68.0,64.2,62.0,64.0,61.0,59.0,95,89,83,30.04,29.96,1,0,3,0.00
2013-8-17,85.0,81.7,77.0,60.0,57.6,55.0,56,44,38,30.18,30.11,2,0,7,0.00
2013-8-18,78.0,70.9,65.0,64.0,51.3,-99.9,76,66,62,30.08,30.06,0,0,1,0.00
2013-8-19,85.0,68.6,58.0,67.0,51.8,-99.9,93,72,49,30.09,29.99,4,0,7,0.00
2013-8-20,88.0,73.9,63.0,70.0,63.5,-99.9,93,75,46,30.08,29.99,4,1,10,0.00
2013-8-21,90.0,76.3,64.0,71.0,67.2,62.0,93,75,50,30.05,29.94,4,1,12,0.00
2013-8-22,75.0,70.2,67.0,70.0,66.4,-99.9,97,90,80,30.11,29.96,6,1,14,1.11
2013-8-23,87.0,72.7,63.0,69.0,63.6,57.0,99,77,41,30.13,30.06,4,0,8,0.02
2013-8-24,87.0,71.6,60.0,71.0,61.8,-99.9,91,75,53,30.21,30.12,3,0,7,0.01
2013-8-25,88.0,75.2,63.0,71.0,65.5,59.0,86,73,54,30.22,30.11,4,1,11,0.00
2013-8-26,91.0,77.4,66.0,76.0,69.6,62.0,91,78,60,30.13,29.96,3,1,8,0.00
2013-8-27,92.0,78.6,72.0,77.0,72.4,69.0,92,82,58,29.98,29.87,3,1,10,0.00
2013-8-28,93.0,84.3,73.0,80.0,75.7,68.0,89,76,66,29.97,29.88,3,1,8,0.00
2013-8-29,89.0,76.6,69.0,74.0,70.3,67.0,96,82,56,30.04,29.93,1,0,7,0.00
2013-8-30,96.0,78.9,68.0,79.0,71.6,65.0,96,80,54,29.94,29.72,6,1,13,0.11
2013-8-31,87.0,74.5,68.0,74.0,68.4,-99.9,95,84,65,29.79,29.71,4,1,10,0.11
2013-9-1,87.0,74.7,63.0,74.0,68.6,62.0,98,82,65,29.78,29.69,7,1,13,0.00
2013-9-2,82.0,69.7,61.0,67.0,62.1,57.0,94,78,52,29.95,29.77,5,1,11,0.00
2013-9-3,77.0,65.3,54.0,61.0,57.1,53.0,96,77,51,30.07,29.95,4,0,8,0.00
2013-9-4,84.0,69.2,55.0,63.0,58.6,53.0,94,72,43,30.11,30.02,5,1,9,0.00
2013-9-5,84.0,70.2,60.0,69.0,61.1,54.0,90,74,48,30.18,30.07,2,0,8,0.00
2013-9-6,88.0,72.2,59.0,68.0,61.3,54.0,86,70,49,30.17,29.97,3,1,9,0.00
2013-9-7,89.0,73.7,63.0,70.0,63.5,-99.9,91,74,50,29.98,29.85,4,1,10,0.01
2013-9-8,88.0,77.1,70.0,72.0,69.0,66.0,92,77,56,29.95,29.85,2,0,7,0.01
2013-9-9,97.0,80.7,68.0,77.0,71.8,66.0,96,77,48,29.89,29.78,4,1,11,0.00
2013-9-10,96.0,83.2,72.0,73.0,68.2,65.0,85,63,37,29.98,29.85,5,1,15,0.00
2013-9-11,92.0,79.3,71.0,71.0,68.2,65.0,87,70,48,30.01,29.95,6,2,12,0.00
2013-9-12,83.0,72.8,60.0,70.0,59.6,50.0,94,67,34,30.04,29.93,9,2,18,0.00
2013-9-13,73.0,60.0,50.0,53.0,46.9,42.0,93,65,33,30.16,30.03,4,1,10,0.00
2013-9-14,75.0,58.0,43.0,49.0,43.4,-99.9,94,64,33,30.17,30.01,3,0,8,0.00
2013-9-15,65.0,57.4,53.0,60.0,52.5,45.0,97,84,73,30.12,29.95,4,1,9,0.14
2013-9-16,72.0,59.4,49.0,56.0,50.9,46.0,97,77,43,30.33,30.13,6,2,12,0.05
2013-9-17,74.0,59.0,46.0,56.0,51.3,45.0,96,78,52,30.29,30.08,3,0,9,0.01
2013-9-18,75.0,61.9,59.0,69.0,56.9,54.0,86,84,81,30.08,29.90,3,1,7,0.00
2013-9-19,93.0,79.5,69.0,71.0,68.7,65.0,95,72,44,29.91,29.72,5,2,15,0.00
2013-9-20,74.0,67.0,56.0,67.0,61.3,52.0,97,83,58,29.83,29.73,9,3,16,0.08
2013-9-21,71.0,58.5,51.0,53.0,48.1,-99.9,95,73,44,29.93,29.81,5,2,17,0.00
2013-9-22,75.0,57.6,44.0,50.0,47.1,43.0,97,71,39,30.03,29.93,4,0,14,0.00
2013-9-23,78.0,60.0,45.0,50.0,46.6,42.0,91,66,32,30.08,29.97,3,0,8,0.00
2013-9-24,81.0,60.6,47.0,54.0,49.1,45.0,92,69,34,30.00,29.86,2,0,7,0.00
2013-9-25,82.0,63.8,50.0,53.0,50.6,47.0,93,67,35,29.93,29.86,3,1,13,0.00
2013-9-26,85.0,64.9,50.0,56.0,50.3,44.0,96,66,26,30.03,29.92,2,0,7,0.00
2013-9-27,85.0,67.0,51.0,56.0,49.9,45.0,91,60,25,30.12,29.99,4,1,10,0.00
2013-9-28,61.0,57.1,55.0,52.0,51.1,50.0,88,80,69,30.02,30.00,2,0,4,0.00
2013-11-25,32.0,30.1,26.0,27.0,23.8,18.0,88,77,65,30.24,30.11,7,2,17,0.00
2013-11-26,36.0,30.3,26.0,29.0,24.9,18.0,89,80,68,30.12,30.05,7,3,14,0.00
2013-12-10,18.0,16.4,14.0,13.0,10.3,8.0,80,76,73,30.35,30.25,2,0,6,0.00
2013-12-11,21.0,13.0,0.0,16.0,8.1,-6.0,92,80,62,30.63,30.30,6,2,13,0.00
2013-12-12,25.0,11.1,-3.0,16.0,5.4,-8.0,88,78,66,30.61,30.25,6,2,14,0.00
2013-12-13,35.0,23.8,13.0,28.0,20.0,9.0,96,85,70,30.26,30.07,2,0,6,0.03
2013-12-14,32.0,26.7,14.0,30.0,24.2,-99.9,97,93,89,30.09,29.91,5,2,9,0.04
2013-12-15,15.0,13.5,10.0,13.0,9.5,7.0,93,84,76,30.16,30.01,8,3,16,0.01
2013-12-16,20.0,15.8,11.0,17.0,13.0,8.0,94,88,78,30.16,30.04,4,1,8,0.01
2013-12-17,34.0,24.8,18.0,29.0,21.5,16.0,95,87,73,30.15,30.01,9,4,16,0.06
2013-12-18,35.0,23.6,10.0,31.0,18.4,7.0,90,80,65,30.20,29.85,10,4,18,0.01
2013-12-19,40.0,36.2,32.0,36.0,33.6,30.0,97,90,84,29.91,29.76,5,1,12,0.30
2013-12-20,36.0,33.6,31.0,35.0,33.3,31.0,98,98,97,29.82,29.72,3,0,8,0.24
2013-12-21,34.0,30.2,28.0,34.0,28.3,-99.9,98,96,94,29.85,29.58,4,1,8,0.01
2013-12-22,34.0,29.6,23.0,33.0,28.1,20.0,98,94,89,30.17,29.60,6,3,12,0.15
2013-12-23,22.0,10.3,1.0,20.0,6.4,-4.0,91,84,78,30.54,30.17,7,4,16,0.01
2013-12-24,21.0,7.6,-2.0,17.0,3.0,-6.0,87,81,74,30.64,30.36,6,3,13,0.00
2013-12-25,28.0,24.2,19.0,26.0,21.2,14.0,94,88,80,30.38,30.16,7,3,15,0.00
2013-12-26,35.0,27.3,16.0,31.0,23.0,12.0,92,84,76,30.32,30.16,9,3,18,0.02
2013-12-27,42.0,33.5,23.0,36.0,30.2,22.0,96,88,78,30.31,30.12,7,2,14,0.01
2013-12-28,49.0,38.1,32.0,40.0,32.3,-99.9,91,82,66,30.12,29.85,6,3,16,0.00
2013-12-29,37.0,27.3,12.0,33.0,24.5,6.0,96,89,81,30.24,29.78,10,5,19,0.00
2013-12-30,14.0,8.7,2.0,9.0,4.2,-2.0,90,82,71,30.37,30.23,5,1,12,0.00
2013-12-31,15.0,9.4,-1.0,12.0,6.3,-4.0,91,87,79,30.42,30.23,2,0,6,0.00
2014-1-1,24.0,19.2,14.0,21.0,16.6,11.0,93,89,82,30.29,30.16,5,2,10,0.00
2014-1-2,17.0,12.0,3.0,14.0,8.8,-2.0,91,86,81,30.47,30.14,5,3,12,0.00